User: anonymous   Login
Location: Newark
(49.1000°N, 0.4667°W)
Time: 01:02:34
(UTC+00:00)
Language:

BEESAT 2 - Orbit

View from above orbital plane
View from above orbital plane
View from above satellite
View from above satellite

Ground track
Ground track

The orbit data is extracted from the following two-line orbital elements,

1 39136U 13015G   20192.81516620  .00000470  00000-0  33001-4 0  9997
2 39136  64.8697 231.0132 0032156 277.2734  82.4737 15.17607756399057
Epoch (UTC): 10 July 2020 19:33:50
Eccentricity: 0.0032156
inclination: 64.8697°
perigee height: 491 km
apogee height: 535 km
right ascension of ascending node: 231.0132°
argument of perigee: 277.2734°
revolutions per day: 15.17607756
mean anomaly at epoch: 82.4737°
orbit number at epoch: 39905

The dashed part of the orbit path shows where the satellite is in the earth's shadow,  

DLR